New Carlisle, IN (46552)

12:03 PM CST on December 03, 2016 (GMT -0600)
Bendix Woods County Park | | Change Station

Elev 835 ft 41.66 °N, 86.51 °W | Updated 3 seconds ago

Overcast
Overcast
36.5 °F
Feels Like 36 °F
N
0.0
Wind Variable Wind from SW
Gusts 3.0 mph

Today
High -- | Low -- °F
--% Chance of Precip.
Yesterday
High -- | Low -- °F
Precip. -- in
Pressure 30.36 in
Visibility 10.0 miles
Clouds Overcast 2900 ft
Windchill 36 °F
Dew Point 25 °F
Humidity 63%
Rainfall 0.00 in
Snow Depth Not available.
6:56 AM 4:15 PM
Waxing Crescent, 16% visible
METAR KSBN 031754Z 22006KT 10SM OVC029 02/M04 A3033 RMK AO2 SLP279 T00171039 10017 20006 55005
Pressure 30.36 in
Visibility 10.0 miles
Clouds Overcast 2900 ft
Windchill 36 °F
Dew Point 25 °F
Humidity 63%
Rainfall 0.00 in
Snow Depth Not available.
6:56 AM 4:15 PM
Waxing Crescent, 16% visible
METAR KSBN 031754Z 22006KT 10SM OVC029 02/M04 A3033 RMK AO2 SLP279 T00171039 10017 20006 55005

10-Day Weather Forecast

Almanac

Astronomy

Dec. 03, 2016 Rise Set
Actual Time
Civil Twilight
Nautical Twilight
Astronomical Twilight
Moon
Length of Visible Light
Length of Day
Tomorrow will be .
, % of the Moon is Illuminated

Today's Extremes

State Highs State Lows

Community

WunderPhotos

Upload Photos

1,955,455 photos uploaded!

WunderBlog® & News

Nearby

Air Quality

  Air Quality AQ Index Pollutant
Not available.

Snow Depth

Station Depth Elevation

Earthquake Activity

City Distance Mag. Time & Date
Minimum magnitude displayed is 2.5.

Coastal Water Temperatures

Place Temperature

Stations

Nearby Weather Stations

Station Location Temp. Windchill Dew Point Humidity Wind Precip. Elev Updated Type
                   

Watches & Warnings

There are currently no watches in effect.